Home   Weather   41°29'N, 81°42'W   Past weeks
Flag for USA

Past Weather in 41°29'N, 81°42'W, USA — Yesterday and Last 2 Weeks

Now
60 °F

Partly sunny.


Feels Like: 60 °F
Forecast: 64 / 40 °F
Wind: 9 mph from Northeast

Location: Cleveland-Hopkins International Airport

Current Time: Oct 19, 2019 at 6:56:48 pm

Latest Report: Oct 19, 2019 at 5:51 pm


Visibility: 10 mi

Pressure: 29.90 "Hg

Humidity: 56%

Dew Point: 44 °F

Location of 41°29'N, 81°42'WLocation

Past Weather in 41°29'N, 81°42'W — Graph

°F

41°29'N, 81°42'W Temperature Yesterday

Maximum temperature yesterday: 56 °F (at 1:51 pm)
Minimum temperature yesterday: 43 °F (at 9:51 pm)
Average temperature yesterday: 50 °F

High & Low Weather Summary for the Past Weeks

 TemperatureHumidityPressure
High81 °F (Oct 11, 2:51 pm)93% (Oct 8, 1:51 am)30.38 "Hg (Oct 8, 1:51 am)
Low37 °F (Oct 15, 5:51 am)21% (Oct 13, 3:51 pm)29.64 "Hg (Oct 16, 4:59 am)
Average56 °F64%30.05 "Hg
* Reported Oct 4 5:51 pm — Oct 19 5:51 pm, 41°29'N, 81°42'W. Weather by CustomWeather, © 2019

Note: Actual official high and low records may vary slightly from our data, if they occured in-between our weather recording intervals... More about our weather records

Advertising

41°29'N, 81°42'W Weather History for the Previous 24 Hours

Scroll right to see more
 ConditionsComfort  
Time TempWeatherWind HumidityBarometerVisibility
5:51 pm
Sat, Oct 19
60 °FPartly sunny.9 mph56%29.90 "Hg10 mi
4:51 pm61 °FPartly sunny.7 mph54%29.93 "Hg10 mi
3:51 pm63 °FBroken clouds.5 mph40%29.93 "Hg10 mi
2:51 pm64 °FPartly sunny.3 mph38%29.95 "Hg10 mi
1:51 pm61 °FPartly sunny.7 mph44%29.98 "Hg10 mi
12:51 pm60 °FPartly sunny.7 mph46%30.00 "Hg10 mi
11:51 am59 °FPassing clouds.13 mph48%30.02 "Hg10 mi
10:51 am56 °FSunny.7 mph55%30.04 "Hg10 mi
9:51 am51 °FSunny.7 mph66%30.06 "Hg10 mi
8:51 am45 °FPassing clouds.7 mph80%30.06 "Hg10 mi
7:51 am41 °FScattered clouds.8 mph82%30.06 "Hg10 mi
6:51 am40 °FPassing clouds.9 mph86%30.06 "Hg10 mi
5:51 am39 °FClear.5 mph89%30.06 "Hg10 mi
4:51 am40 °FClear.No wind86%30.06 "Hg10 mi
3:51 am40 °FPassing clouds.No wind86%30.06 "Hg10 mi
2:51 am40 °FClear.3 mph86%30.07 "Hg10 mi
1:51 am38 °FClear.No wind86%30.07 "Hg10 mi
12:51 am42 °FClear.No wind82%30.06 "Hg10 mi
11:51 pm
Fri, Oct 18
44 °FClear.No wind79%30.07 "Hg10 mi
10:51 pm44 °FClear.3 mph82%30.08 "Hg10 mi
9:51 pm43 °FClear.3 mph82%30.09 "Hg10 mi
8:51 pm49 °FPassing clouds.3 mph69%30.08 "Hg10 mi
7:51 pm49 °FPassing clouds.3 mph69%30.08 "Hg10 mi
6:51 pm49 °FPassing clouds.7 mph66%30.07 "Hg10 mi
Weather by CustomWeather, © 2019

See weather overview